CW7218 Weather Reports


Display with metric or nautical units.
time (UTC)temp
F
wind
direction
speed
MPH
gust
MPH
rain 1hr
in
rain 24hr
in
rain mn
in
humidity
%
barometer
mb
20260904195048 83 315 3.0 5.0 0.00 0.00 0.00 58 1023.8
20260904194028 84 180 1.0 3.0 0.00 0.00 0.00 57 1023.7
20260904193028 84 248 3.0 5.0 0.00 0.00 0.00 56 1023.6
20260904192028 85 203 3.0 6.0 0.00 0.00 0.00 55 1023.5
20260904191028 85 203 3.0 7.0 0.00 0.00 0.00 55 1023.2
20260904190048 86 248 3.0 6.0 0.00 0.00 0.00 53 1023.0
20260904185108 86 248 5.0 9.0 0.00 0.00 0.00 52 1022.8
20260904184108 86 248 4.0 7.0 0.00 0.00 0.00 52 1022.7
20260904183029 87 248 4.0 8.0 0.00 0.00 0.00 51 1022.7
20260904182029 87 248 4.0 7.0 0.00 0.00 0.00 50 1022.6
20260904181030 88 225 4.0 9.0 0.00 0.00 0.00 49 1022.5
20260904180050 88 203 6.0 11.0 0.00 0.00 0.00 48 1022.4
20260904175030 89 203 6.0 11.0 0.00 0.00 0.00 47 1022.2
20260904174029 90 158 6.0 13.0 0.00 0.00 0.00 46 1022.2
20260904173029 91 135 5.0 11.0 0.00 0.00 0.00 45 1022.2
20260904172029 92 180 5.0 10.0 0.00 0.00 0.00 43 1021.9
20260904171029 93 225 3.0 12.0 0.00 0.00 0.00 40 1021.9
20260904170029 93 270 3.0 6.0 0.00 0.00 0.00 32 1021.5
20260904165029 94 248 4.0 7.0 0.00 0.00 0.00 31 1021.4
20260904164029 95 225 4.0 7.0 0.00 0.00 0.00 30 1021.4
20260904163029 95 248 4.0 8.0 0.00 0.00 0.00 29 1021.3
20260904162029 95 203 5.0 9.0 0.00 0.00 0.00 29 1021.3
20260904161029 95 225 4.0 8.0 0.00 0.00 0.00 28 1021.3
20260904160029 95 203 6.0 12.0 0.00 0.00 0.00 28 1021.4
20260904155029 96 203 5.0 9.0 0.00 0.00 0.00 27 1021.3
20260904154029 97 135 2.0 5.0 0.00 0.00 0.00 26 1021.5
20260904153029 96 135 3.0 7.0 0.00 0.00 0.00 27 1021.6
20260904152029 96 270 3.0 7.0 0.00 0.00 0.00 27 1021.6
20260904151030 96 225 3.0 8.0 0.00 0.00 0.00 27 1021.6
20260904150029 96 135 3.0 8.0 0.00 0.00 0.00 26 1021.6
20260904145051 96 203 2.0 8.0 0.00 0.00 0.00 26 1021.7
20260904144029 95 135 4.0 10.0 0.00 0.00 0.00 26 1021.7
20260904143029 95 135 5.0 13.0 0.00 0.00 0.00 26 1021.8
20260904142029 95 135 4.0 10.0 0.00 0.00 0.00 26 1021.7
20260904141029 94 113 6.0 15.0 0.00 0.00 0.00 27 1021.8
20260904140029 94 135 6.0 13.0 0.00 0.00 0.00 27 1021.9
20260904135029 95 135 4.0 8.0 0.00 0.00 0.00 26 1022.0
20260904134029 95 158 5.0 10.0 0.00 0.00 0.00 26 1022.2
20260904133029 94 135 6.0 12.0 0.00 0.00 0.00 27 1022.0
20260904132029 95 135 6.0 15.0 0.00 0.00 0.00 26 1022.2
20260904131029 95 158 4.0 8.0 0.00 0.00 0.00 27 1022.3
20260904130029 94 248 3.0 8.0 0.00 0.00 0.00 30 1022.1
20260904125029 93 135 3.0 9.0 0.00 0.00 0.00 31 1022.3
20260904124109 92 68 4.0 11.0 0.00 0.00 0.00 35 1022.4
20260904123049 92 113 3.0 8.0 0.00 0.00 0.00 37 1022.6
20260904122028 92 135 3.0 9.0 0.00 0.00 0.00 38 1022.8
20260904121049 91 158 3.0 9.0 0.00 0.00 0.00 40 1022.8
20260904120028 90 113 4.0 9.0 0.00 0.00 0.00 41 1022.8
20260904115029 90 158 2.0 5.0 0.00 0.00 0.00 41 1022.8
20260904114029 90 158 2.0 5.0 0.00 0.00 0.00 43 1023.1
20260904113029 89 180 2.0 5.0 0.00 0.00 0.00 45 1023.0
20260904112029 88 135 2.0 7.0 0.00 0.00 0.00 46 1023.2
20260904111029 88 158 3.0 7.0 0.00 0.00 0.00 47 1023.0
20260904110049 87 135 4.0 9.0 0.00 0.00 0.00 48 1023.1
20260904105029 86 158 2.0 6.0 0.00 0.00 0.00 50 1023.2
20260904104029 85 180 3.0 6.0 0.00 0.00 0.00 51 1023.3
20260904103029 85 180 3.0 6.0 0.00 0.00 0.00 52 1023.4
20260904102029 85 180 2.0 5.0 0.00 0.00 0.00 51 1023.5
20260904101029 84 135 2.0 8.0 0.00 0.00 0.00 52 1023.6
20260904100049 84 135 2.0 5.0 0.00 0.00 0.00 52 1023.7
20260904095029 84 90 2.0 5.0 0.00 0.00 0.00 53 1023.7
20260904094029 83 158 2.0 6.0 0.00 0.00 0.00 55 1023.6
20260904093049 82 180 3.0 6.0 0.00 0.00 0.00 56 1023.6
20260904092029 82 180 2.0 5.0 0.00 0.00 0.00 57 1023.6
20260904091029 82 90 2.0 5.0 0.00 0.00 0.00 57 1023.8
20260904090049 82 158 2.0 5.0 0.00 0.00 0.00 57 1023.8
20260904085028 81 180 2.0 4.0 0.00 0.00 0.00 58 1023.7
20260904084029 81 203 1.0 3.0 0.00 0.00 0.00 57 1023.7
20260904083029 80 90 2.0 6.0 0.00 0.00 0.00 57 1023.6
20260904082028 79 90 1.0 3.0 0.00 0.00 0.00 57 1023.4
20260904081029 78 90 2.0 4.0 0.00 0.00 0.00 58 1023.4
20260904080109 76 90 3.0 6.0 0.00 0.00 0.00 61 1023.2
20260904075029 75 68 3.0 7.0 0.00 0.00 0.00 63 1023.2
20260904074029 74 45 5.0 7.0 0.00 0.00 0.00 64 1023.2
20260904073029 74 45 4.0 8.0 0.00 0.00 0.00 65 1023.1
20260904072048 73 45 4.0 8.0 0.00 0.00 0.00 67 1023.2
20260904071028 72 45 4.0 8.0 0.00 0.00 0.00 67 1023.1
20260904070029 71 45 5.0 8.0 0.00 0.00 0.00 69 1023.1
20260904065029 70 45 6.0 8.0 0.00 0.00 0.00 70 1023.0
20260904064028 70 45 6.0 8.0 0.00 0.00 0.00 71 1023.0
20260904063028 69 45 5.0 7.0 0.00 0.00 0.00 71 1023.0
20260904062028 69 23 6.0 10.0 0.00 0.00 0.00 71 1023.0
20260904061028 69 45 5.0 7.0 0.00 0.00 0.00 72 1023.2
20260904060028 69 45 7.0 9.0 0.00 0.00 0.00 72 1023.2
20260904055028 69 45 7.0 10.0 0.00 0.00 0.00 72 1022.9
20260904054028 69 45 5.0 9.0 0.00 0.00 0.00 72 1023.1
20260904053048 68 45 5.0 8.0 0.00 0.00 0.00 72 1023.0
20260904052028 69 45 6.0 9.0 0.00 0.00 0.00 71 1023.0
20260904051028 69 45 4.0 6.0 0.00 0.00 0.00 71 1023.3
20260904050030 69 23 4.0 7.0 0.00 0.00 0.00 71 1023.4
20260904045030 69 23 6.0 9.0 0.00 0.00 0.00 72 1023.4
20260904044050 69 45 7.0 9.0 0.00 0.00 0.00 72 1023.6
20260904043030 69 45 7.0 11.0 0.00 0.00 0.00 73 1023.6
20260904042050 69 45 8.0 11.0 0.00 0.00 0.00 74 1023.5
20260904041030 68 68 8.0 10.0 0.00 0.00 0.00 75 1023.7
20260904040030 68 45 6.0 9.0 0.00 0.00 0.00 75 1023.7
20260904035030 68 45 7.0 10.0 0.00 0.00 0.00 76 1023.9
20260904034030 68 45 8.0 10.0 0.00 0.00 0.00 76 1024.0
20260904033030 69 45 7.0 10.0 0.00 0.00 0.00 75 1024.0
20260904032030 69 45 7.0 11.0 0.00 0.00 0.00 75 1024.3
20260904031030 70 45 8.0 11.0 0.00 0.00 0.00 73 1024.2
20260904030050 69 45 6.0 8.0 0.00 0.00 0.00 73 1024.2
20260904025110 70 45 6.0 9.0 0.00 0.00 0.00 74 1024.4
20260904024110 69 45 7.0 9.0 0.00 0.00 0.00 75 1024.4
20260904023029 69 45 7.0 9.0 0.00 0.00 0.00 74 1024.4
20260904022050 69 45 7.0 9.0 0.00 0.00 0.00 74 1024.4
20260904021030 70 45 5.0 8.0 0.00 0.00 0.00 73 1024.5
20260904020030 70 23 4.0 8.0 0.00 0.00 0.00 72 1024.5
20260904015030 70 45 4.0 6.0 0.00 0.00 0.00 73 1024.7
20260904014029 70 45 4.0 7.0 0.00 0.00 0.00 73 1024.6
20260904013029 71 68 4.0 6.0 0.00 0.00 0.00 73 1024.6
20260904012029 71 45 4.0 8.0 0.00 0.00 0.00 73 1024.9
20260904011030 71 23 4.0 7.0 0.00 0.00 0.00 72 1024.7
20260904010050 72 0.0 2.0 0.00 0.00 0.00 72 1024.8
20260904005031 71 23 1.0 5.0 0.00 0.00 0.00 74 1024.9
20260904004029 71 45 3.0 6.0 0.00 0.00 0.00 73 1025.1
20260904003029 72 45 4.0 7.0 0.00 0.00 0.00 72 1025.2
20260904002029 73 0.0 2.0 0.00 0.00 0.00 71 1025.4
20260904001030 73 0.0 0.0 0.00 0.00 0.00 72 1025.2
20260904000050 73 0.0 0.0 0.00 0.00 0.00 71 1025.2
20260903235029 73 158 1.0 4.0 0.00 0.00 0.00 72 1025.3
20260903234029 73 23 4.0 6.0 0.00 0.00 0.00 72 1025.1
20260903233029 73 45 3.0 5.0 0.00 0.00 0.00 70 1025.1
20260903232029 73 45 4.0 7.0 0.00 0.00 0.00 70 1025.0
20260903231029 74 68 1.0 3.0 0.00 0.00 0.00 70 1025.2
20260903230029 74 45 2.0 4.0 0.00 0.00 0.00 70 1025.2
20260903225029 74 23 2.0 3.0 0.00 0.00 0.00 70 1025.1
20260903224049 74 293 1.0 4.0 0.00 0.00 0.00 70 1025.1
20260903223029 75 90 1.0 3.0 0.00 0.00 0.00 71 1025.1
20260903222029 75 0.0 2.0 0.00 0.00 0.00 70 1025.1
20260903221029 75 45 2.0 5.0 0.00 0.00 0.00 70 1025.2
20260903220049 75 68 3.0 6.0 0.00 0.00 0.00 70 1025.1
20260903215029 76 338 3.0 5.0 0.00 0.00 0.00 68 1025.1
20260903214029 76 338 5.0 7.0 0.00 0.00 0.00 69 1025.0
20260903213029 76 338 4.0 6.0 0.00 0.00 0.00 69 1025.1
20260903212029 76 0 3.0 7.0 0.00 0.00 0.00 68 1025.2
20260903211029 76 0 3.0 7.0 0.00 0.00 0.00 68 1025.2
20260903210049 77 0 1.0 3.0 0.00 0.00 0.00 68 1025.3
20260903205029 77 338 2.0 5.0 0.00 0.00 0.00 68 1025.3
20260903204029 78 203 1.0 3.0 0.00 0.00 0.00 69 1025.5
20260903203029 78 203 2.0 5.0 0.00 0.00 0.00 69 1025.4
20260903202109 78 248 3.0 4.0 0.00 0.00 0.00 68 1025.4
20260903201029 78 248 2.0 4.0 0.00 0.00 0.00 67 1025.3
20260903200029 79 270 3.0 5.0 0.00 0.00 0.00 65 1024.9